Main page
METAR-TAF:

METAR-TAF

Airports :

Oil platform

A12-cpp, Netherlands

latitude: 55-23-57N, longitude: 3-48-37E, elevation: 33 m

Current weather observation

The report was made 26 minutes ago, at 09:25 UTC
Wind 22 kt from the East/Southeast, varying between East and South/Southeast
Temperature 11°C
Humidity 82%
Pressure 1034 hPa
Visibility 10 km or more

METAR: EHAK 170925Z AUTO 12022KT 100V160 9999 FEW013/// 11/08 Q1034 W///H///

Time: 10:51 (09:51 UTC)


TAF: missing

Weather observations and forecasts of more than 4000 airports (METAR and TAF reports).

The available stations are represented by yellow and red dots on the map.

Hover mouse over dot to see the name of the station.

Then click to see weather observations and forecasts.

To change the map : click on the green buttons with a black cross to zoom in, on the green button with a dash to zoom out, or on the green arrows for adjacent maps.


METAR-TAF: